Starlink 5201

operational
NORAD ID: 54076 Int'l Des: 2022-136 Owner: SPXS Country: US Constellation: starlink
LEOCIRCULAR

Starlink 5201について

説明を読み込み中...

リアルタイム位置

3D地球を読み込み中...

次回通過

高度履歴

Altitude vs Time

uPlot chart will show altitude changes over time

軌道要素

1 54076U 22136AB 25353.22616350 -.00000013 00000-0 17254-4 0 9997
2 54076 53.2187 345.5400 0001378 88.7847 271.3303 15.08836714174691
Epoch: Dec 19, 2025 • Age: 22 hours

現在のステータス

高度 559.3 km
速度 7.58 km/s
衛星直下点 -53.36°S, 114.67°E
打ち上げ日 Oct 20, 2022
運用期間 3.1 years
タイプ internet

技術仕様

分類 Payload
質量 305.00 kg
乾燥質量 290.00 kg
総質量 305.00 kg
長さ 0.20 m
直径 2.80 m
スパン 9.00 m
形状 Box + pan
製造者 SPXS
バスタイプ Starlink
フェーズステータス In Orbit
所有者/国 SPXS/US

大規模コンステレーション

Loading constellations...